Date String (YYYY-MM-DD hh:mm:ss) UTC,Instrument flags,Ambient pressure (hPa),Sample flow (lpm),Bypass flow (lpm),Sample temperature (°C),Ambient temperature (°C),ASC tube jacket temperature (°C),LED temperature (°C),Box temperature (°C),Sample RH (%),Span deviation,Mass concentration (μg/m³),Mass concentration (μg/m³),Mass concentration (μg/m³)
DateTimeUTC,F1_M11,P_M11,Q1_M11,Q2_M11,T1_M11,T2_M11,T3_M11,T4_M11,T5_M11,U1_M11,ZSPAN_M11,X0_M11,X2_M11,X1_M11
2022-01-31 05:00:00,,0823.7,5.00,0.00,26.1,25.2,00.0,35.0,27.8,05.3,0011.6,0011.04,0006.52,0006.30
2022-01-31 05:01:00,,0823.6,4.99,0.00,26.0,25.2,00.0,35.0,27.8,05.4,0011.5,0011.08,0006.53,0006.31
2022-01-31 05:02:00,,0823.7,5.00,0.00,26.0,25.2,00.0,35.0,27.8,05.3,0011.0,0011.15,0006.55,0006.32
2022-01-31 05:03:00,,0823.6,4.99,0.00,26.0,25.2,00.0,35.0,27.8,04.9,0011.6,0010.81,0006.53,0006.31
2022-01-31 05:04:00,,0823.7,5.02,0.00,26.0,25.2,00.0,35.0,27.8,04.9,0012.0,0010.16,0006.49,0006.27
2022-01-31 05:05:00,,0823.6,4.99,0.00,26.0,25.2,00.0,35.0,27.8,04.8,0011.7,0010.08,0006.44,0006.23
2022-01-31 05:06:00,,0823.6,5.00,0.00,26.0,25.2,00.0,35.0,27.8,04.9,0010.2,0010.35,0006.42,0006.20
2022-01-31 05:07:00,,0823.6,5.02,0.00,26.0,25.1,00.0,35.0,27.8,04.9,0008.6,0010.35,0006.39,0006.17
2022-01-31 05:08:00,,0823.6,4.99,0.00,26.0,25.1,00.0,35.0,27.8,05.0,0008.5,0010.66,0006.40,0006.16
2022-01-31 05:09:00,,0823.7,5.02,0.00,26.0,25.1,00.0,34.9,27.8,04.9,0007.9,0010.47,0006.37,0006.14
2022-01-31 05:10:00,,0823.6,4.99,0.00,26.0,25.1,00.0,34.9,27.8,04.8,0007.3,0010.24,0006.33,0006.10
2022-01-31 05:11:00,,0823.7,4.98,0.00,26.0,25.1,00.0,34.9,27.8,04.9,0004.2,0010.14,0006.25,0006.06
2022-01-31 05:12:00,,0823.7,5.02,0.00,26.0,25.1,00.0,34.9,27.7,04.9,0002.8,0010.14,0006.22,0006.02
2022-01-31 05:13:00,,0823.7,4.98,0.00,25.9,25.1,00.0,34.9,27.7,04.9,0005.2,0010.00,0006.17,0005.98
2022-01-31 05:14:00,,0823.7,5.01,0.00,25.9,25.1,00.0,34.9,27.7,04.8,0005.6,0010.02,0006.15,0005.96
2022-01-31 05:15:00,,0823.6,4.99,0.00,25.9,25.1,00.0,34.9,27.7,04.7,0005.9,0010.34,0006.12,0005.94
2022-01-31 05:16:00,,0823.6,5.01,0.00,25.9,25.0,00.0,34.9,27.7,04.6,0005.8,0010.30,0006.10,0005.92
2022-01-31 05:17:00,,0823.6,5.01,0.00,25.9,25.0,00.0,34.9,27.7,04.6,0005.5,0010.06,0006.08,0005.90
2022-01-31 05:18:00,,0823.6,4.99,0.00,25.9,25.0,00.0,34.9,27.6,04.7,0007.7,0009.97,0006.06,0005.88
2022-01-31 05:19:00,,0823.6,5.00,0.00,25.8,25.0,00.0,34.9,27.6,04.7,0008.0,0009.69,0006.03,0005.85
2022-01-31 05:20:00,,0823.6,4.98,0.00,25.8,25.0,00.0,34.9,27.6,04.6,0008.6,0009.67,0006.02,0005.82
2022-01-31 05:21:00,,0823.6,5.00,0.00,25.8,25.0,00.0,34.8,27.6,04.6,0011.7,0009.73,0006.02,0005.81
2022-01-31 05:22:00,,0823.5,5.00,0.00,25.8,25.0,00.0,34.8,27.6,04.6,0009.8,0009.79,0006.03,0005.80
2022-01-31 05:23:00,,0823.4,4.99,0.00,25.8,25.0,00.0,34.8,27.5,04.6,0008.5,0009.44,0006.03,0005.80
2022-01-31 05:24:00,,0823.5,5.01,0.00,25.8,24.9,00.0,34.8,27.5,04.8,0003.1,0009.58,0006.10,0005.85
2022-01-31 05:25:00,,0823.5,5.00,0.00,25.8,24.9,00.0,34.8,27.5,04.8,0000.8,0009.55,0006.15,0005.90
2022-01-31 05:26:00,,0823.5,5.00,0.00,25.7,24.9,00.0,34.8,27.5,04.6,-001.0,0009.29,0006.20,0005.94
2022-01-31 05:27:00,,0823.4,5.00,0.00,25.7,24.9,00.0,34.8,27.4,04.7,-001.3,0009.32,0006.22,0005.95
2022-01-31 05:28:00,,0823.5,4.98,0.00,25.7,24.9,00.0,34.8,27.4,04.9,-000.7,0009.28,0006.22,0005.96
2022-01-31 05:29:00,,0823.4,5.01,0.00,25.7,24.8,00.0,34.7,27.4,04.8,0000.9,0009.29,0006.23,0005.97
2022-01-31 05:30:00,,0823.4,4.98,0.00,25.6,24.8,00.0,34.7,27.4,04.8,0001.5,0009.23,0006.23,0005.97
2022-01-31 05:31:00,,0823.4,5.01,0.00,25.6,24.8,00.0,34.7,27.4,04.6,0001.6,0009.25,0006.24,0005.98
2022-01-31 05:32:00,,0823.4,4.99,0.00,25.6,24.8,00.0,34.7,27.3,04.5,0002.7,0009.27,0006.27,0005.99
2022-01-31 05:33:00,,0823.4,5.01,0.00,25.6,24.8,00.0,34.7,27.3,04.5,0003.5,0009.27,0006.29,0006.01
2022-01-31 05:34:00,,0823.3,5.00,0.00,25.6,24.7,00.0,34.7,27.3,04.7,0003.3,0009.25,0006.28,0006.00
2022-01-31 05:35:00,,0823.3,5.00,0.00,25.5,24.7,00.0,34.6,27.3,04.9,0003.5,0009.05,0006.18,0005.92
2022-01-31 05:36:00,,0823.3,5.01,0.00,25.5,24.7,00.0,34.6,27.2,04.8,0004.1,0008.95,0006.08,0005.82
2022-01-31 05:37:00,,0823.4,4.99,0.00,25.5,24.7,00.0,34.6,27.2,04.6,0005.4,0008.87,0006.03,0005.78
2022-01-31 05:38:00,,0823.4,5.01,0.00,25.5,24.6,00.0,34.6,27.2,04.7,0005.4,0008.89,0006.04,0005.79
2022-01-31 05:39:00,,0823.3,4.98,0.00,25.4,24.6,00.0,34.6,27.2,04.8,0006.1,0008.94,0006.06,0005.80
2022-01-31 05:40:00,,0823.3,5.02,0.00,25.4,24.6,00.0,34.6,27.2,04.9,0006.4,0009.01,0006.07,0005.79
2022-01-31 05:41:00,,0823.3,4.99,0.00,25.4,24.6,00.0,34.5,27.1,04.9,0006.6,0008.97,0006.04,0005.78
2022-01-31 05:42:00,,0823.3,5.01,0.00,25.4,24.5,00.0,34.5,27.1,04.9,0006.3,0008.93,0006.02,0005.76
2022-01-31 05:43:00,,0823.2,4.99,0.00,25.4,24.5,00.0,34.5,27.1,04.9,0002.9,0008.84,0005.97,0005.74
2022-01-31 05:44:00,,0823.2,4.99,0.00,25.4,24.5,00.0,34.5,27.1,05.0,0004.8,0008.79,0005.93,0005.71
2022-01-31 05:45:00,,0823.2,5.01,0.00,25.3,24.5,00.0,34.5,27.0,05.1,0001.7,0008.73,0005.90,0005.67
2022-01-31 05:46:00,,0823.2,4.99,0.00,25.3,24.5,00.0,34.5,27.0,05.2,0000.0,0008.70,0005.87,0005.65
2022-01-31 05:47:00,,0823.2,5.01,0.00,25.3,24.4,00.0,34.4,27.0,05.1,0000.0,0008.69,0005.83,0005.61
2022-01-31 05:48:00,,0823.1,5.00,0.00,25.3,24.4,00.0,34.4,27.0,05.1,0000.0,0008.67,0005.80,0005.58
2022-01-31 05:49:00,,0823.1,4.99,0.00,25.3,24.4,00.0,34.4,27.0,05.0,0000.0,0008.67,0005.77,0005.55
2022-01-31 05:50:00,,0823.1,4.99,0.00,25.2,24.4,00.0,34.4,27.0,05.0,0000.0,0008.63,0005.75,0005.53
2022-01-31 05:51:00,,0823.1,5.00,0.00,25.2,24.4,00.0,34.4,26.9,05.2,0000.0,0008.50,0005.68,0005.49
2022-01-31 05:52:00,,0823.1,4.99,0.00,25.2,24.4,00.0,34.3,26.9,05.5,0000.0,0008.50,0005.63,0005.42
2022-01-31 05:53:00,,0823.1,5.01,0.00,25.2,24.3,00.0,34.3,26.9,05.7,0000.0,0008.48,0005.55,0005.34
2022-01-31 05:54:00,,0823.1,4.99,0.00,25.2,24.3,00.0,34.3,26.9,05.7,0000.0,0008.61,0005.46,0005.23
2022-01-31 05:55:00,,0823.1,5.01,0.00,25.1,24.3,00.0,34.3,26.8,05.7,0000.0,0008.60,0005.39,0005.16
2022-01-31 05:56:00,,0823.1,4.99,0.00,25.1,24.3,00.0,34.3,26.8,05.7,0000.0,0008.54,0005.34,0005.12
2022-01-31 05:57:00,,0823.1,5.02,0.00,25.1,24.3,00.0,34.3,26.8,05.6,0000.0,0008.53,0005.34,0005.11
2022-01-31 05:58:00,,0823.1,4.98,0.00,25.1,24.3,00.0,34.2,26.8,05.6,0000.0,0008.62,0005.37,0005.12
2022-01-31 05:59:00,,0823.1,5.01,0.00,25.1,24.2,00.0,34.2,26.8,05.6,0000.0,0008.68,0005.37,0005.11
